User: anonymous   Login
Location: ??????-???
(48.4261°N, 37.7652°E)
Time: 12:14:49
(UTC+00:00)
Language:

STARLINK-1256 - Orbit

View from above orbital plane
View from above orbital plane
View from above satellite
View from above satellite

Ground track
Ground track

The orbit data is extracted from the following two-line orbital elements,

1 45401U 20019AT  20227.25001157 -.00029989  00000-0 -20459-2 0  9991
2 45401  53.0005 265.0758 0001201  97.9695 124.6673 15.05613596 23477
Epoch (UTC): 14 August 2020 06:00:01
Eccentricity: 0.0001201
inclination: 53.0005°
perigee height: 549 km
apogee height: 550 km
right ascension of ascending node: 265.0758°
argument of perigee: 97.9695°
revolutions per day: 15.05613596
mean anomaly at epoch: 124.6673°
orbit number at epoch: 2347

The dashed part of the orbit path shows where the satellite is in the earth's shadow,  

DLR